Location: Martley
(52.2333°N, 2.3667°W)
Time: 11:17:19
(UTC+00:00)

USA 116 - Pass Details

Date: 11 December 2019
Orbit: 405 x 834 km, 97.9° (Epoch: 18 November)

Event Time Altitude Azimuth Distance (km) Brightness Sun altitude
Rises 05:54:02 0° 177° (S) 2,916 7.6 -19.2°
Reaches altitude 10° 05:56:10 10° 182° (S) 2,072 6.8 -18.9°
Maximum altitude 06:00:40 55° 261° (W) 858 4.3 -18.2°
Enters shadow 06:04:23 18° 334° (NNW) 1,813 6.0 -17.7°
